• In Hungary
  • List of Countries
  • For 7 days
  • Water Temperature
  • Satellite Maps
  • Weather Map
  • News
  • Weather Widgets
  • user-avatar
    Login

    Hourly Weather Wavre

    Today, 15 December, Friday

    Time Temperature Precipitation Wind Pressure Humidity
    00:00 0°C° 0 mm 4 mps 737 mmHg 91%
    01:00 0°C° 0 mm 4 mps 738 mmHg 91%
    02:00 0°C° 0 mm 4 mps 738 mmHg 91%
    03:00 0°C° 0 mm 4 mps 738 mmHg 91%
    04:00 0°C° 0.1 mm 4 mps 738 mmHg 92%
    05:00 0°C° 0.1 mm 4 mps 738 mmHg 92%
    06:00 0°C° 0.1 mm 4 mps 738 mmHg 93%
    07:00 +1°C° 0 mm 3 mps 738 mmHg 92%
    08:00 +1°C° 0 mm 3 mps 739 mmHg 92%
    09:00 +1°C° 0 mm 3 mps 739 mmHg 91%
    10:00 +2°C° 0 mm 3 mps 739 mmHg 88%
    11:00 +3°C° 0 mm 3 mps 739 mmHg 85%
    12:00 +4°C° 0 mm 4 mps 740 mmHg 82%
    13:00 +4°C° 0.1 mm 3 mps 740 mmHg 85%
    14:00 +5°C° 0.1 mm 2 mps 741 mmHg 87%
    15:00 +5°C° 0.1 mm 1 mps 741 mmHg 89%
    16:00 +5°C° 0.1 mm 1 mps 742 mmHg 90%
    17:00 +4°C° 0.1 mm 1 mps 742 mmHg 91%
    18:00 +4°C° 0.1 mm 1 mps 743 mmHg 92%
    19:00 +4°C° 0 mm 1 mps 744 mmHg 93%
    20:00 +3°C° 0 mm 1 mps 744 mmHg 93%
    21:00 +2°C° 0 mm 2 mps 745 mmHg 94%
    22:00 +2°C° 0 mm 2 mps 746 mmHg 94%
    23:00 +2°C° 0 mm 2 mps 747 mmHg 94%

    Tomorrow, 16 December, Saturday

    Time Temperature Precipitation Wind Pressure Humidity
    00:00 +2°C° 0 mm 2 mps 748 mmHg 95%
    01:00 +2°C° 0 mm 2 mps 748 mmHg 94%
    02:00 +2°C° 0 mm 2 mps 749 mmHg 94%
    03:00 +2°C° 0 mm 2 mps 749 mmHg 94%
    04:00 +2°C° 0.1 mm 2 mps 750 mmHg 93%
    05:00 +1°C° 0.1 mm 3 mps 751 mmHg 92%
    06:00 +1°C° 0.1 mm 3 mps 751 mmHg 91%
    07:00 +1°C° 0.2 mm 3 mps 752 mmHg 90%
    08:00 +1°C° 0.2 mm 3 mps 753 mmHg 88%
    09:00 +2°C° 0.2 mm 3 mps 753 mmHg 86%
    10:00 +3°C° 0.3 mm 4 mps 754 mmHg 82%
    11:00 +3°C° 0.3 mm 4 mps 754 mmHg 77%
    12:00 +3°C° 0.3 mm 5 mps 754 mmHg 73%
    13:00 +3°C° 0.3 mm 5 mps 755 mmHg 75%
    14:00 +2°C° 0.3 mm 5 mps 755 mmHg 77%
    15:00 +2°C° 0.3 mm 5 mps 756 mmHg 79%
    16:00 +3°C° 0.2 mm 4 mps 756 mmHg 81%
    17:00 +1°C° 0.2 mm 4 mps 757 mmHg 83%
    18:00 +1°C° 0.2 mm 4 mps 757 mmHg 86%
    19:00 0°C° 0.1 mm 4 mps 758 mmHg 86%
    20:00 0°C° 0.1 mm 4 mps 759 mmHg 87%
    21:00 0°C° 0.1 mm 4 mps 759 mmHg 88%
    22:00 0°C° 0.1 mm 4 mps 759 mmHg 89%
    23:00 +1°C° 0.1 mm 3 mps 760 mmHg 89%

    Day after tomorrow, 17 December, Sunday

    Time Temperature Precipitation Wind Pressure Humidity
    00:00 0°C° 0.1 mm 3 mps 760 mmHg 90%
    01:00 0°C° 0.1 mm 3 mps 761 mmHg 90%
    02:00 0°C° 0.1 mm 3 mps 761 mmHg 90%
    03:00 +1°C° 0.1 mm 3 mps 761 mmHg 90%
    04:00 0°C° 0.1 mm 3 mps 762 mmHg 90%
    05:00 0°C° 0.1 mm 3 mps 762 mmHg 91%
    06:00 0°C° 0.1 mm 3 mps 762 mmHg 91%
    07:00 0°C° 0 mm 3 mps 763 mmHg 90%
    08:00 0°C° 0 mm 3 mps 763 mmHg 90%
    09:00 +1°C° 0 mm 3 mps 764 mmHg 89%
    10:00 +1°C° 0 mm 3 mps 764 mmHg 85%
    11:00 +1°C° 0 mm 4 mps 764 mmHg 82%
    12:00 +3°C° 0 mm 4 mps 764 mmHg 78%
    13:00 +3°C° 0 mm 4 mps 764 mmHg 78%
    14:00 +1°C° 0 mm 4 mps 764 mmHg 79%
    15:00 +2°C° 0 mm 3 mps 764 mmHg 79%
    16:00 +1°C° 0 mm 4 mps 764 mmHg 80%
    17:00 0°C° 0 mm 4 mps 764 mmHg 81%
    18:00 0°C° 0 mm 5 mps 764 mmHg 81%
    19:00 +1°C° 0 mm 5 mps 764 mmHg 84%
    20:00 +1°C° 0 mm 6 mps 764 mmHg 86%
    21:00 +2°C° 0 mm 6 mps 764 mmHg 88%
    22:00 +2°C° 0.1 mm 6 mps 764 mmHg 89%
    23:00 +3°C° 0.1 mm 7 mps 763 mmHg 90%

    18 December, Monday

    Time Temperature Precipitation Wind Pressure Humidity
    00:00 +3°C° 0.1 mm 7 mps 762 mmHg 92%
    01:00 +4°C° 0.6 mm 7 mps 762 mmHg 91%
    02:00 +5°C° 0.6 mm 8 mps 762 mmHg 91%
    03:00 +5°C° 0.6 mm 8 mps 762 mmHg 91%
    04:00 +6°C° 0.7 mm 7 mps 762 mmHg 92%
    05:00 +7°C° 0.7 mm 6 mps 762 mmHg 93%
    06:00 +7°C° 0.7 mm 6 mps 762 mmHg 93%
    07:00 +7°C° 0.1 mm 5 mps 762 mmHg 92%
    08:00 +6°C° 0.1 mm 4 mps 763 mmHg 91%
    09:00 +6°C° 0.1 mm 4 mps 763 mmHg 90%
    10:00 +6°C° 0 mm 4 mps 764 mmHg 85%
    11:00 +7°C° 0 mm 4 mps 764 mmHg 80%
    12:00 +7°C° 0 mm 4 mps 764 mmHg 75%
    13:00 +7°C° 0 mm 3 mps 764 mmHg 77%
    14:00 +7°C° 0 mm 3 mps 765 mmHg 79%
    15:00 +6°C° 0 mm 2 mps 765 mmHg 81%
    16:00 +5°C° 0 mm 2 mps 765 mmHg 84%
    17:00 +6°C° 0 mm 1 mps 766 mmHg 86%
    18:00 +5°C° 0 mm 1 mps 766 mmHg 88%
    19:00 +5°C° 0 mm 1 mps 767 mmHg 89%
    20:00 +4°C° 0 mm 1 mps 767 mmHg 89%
    21:00 +4°C° 0 mm 1 mps 768 mmHg 90%
    22:00 +4°C° 0 mm 1 mps 768 mmHg 90%
    23:00 +4°C° 0 mm 1 mps 769 mmHg 90%

    19 December, Tuesday

    Time Temperature Precipitation Wind Pressure Humidity
    00:00 +4°C° 0 mm 1 mps 769 mmHg 90%
    01:00 +4°C° 0 mm 1 mps 769 mmHg 90%
    02:00 +3°C° 0 mm 1 mps 769 mmHg 90%
    03:00 +3°C° 0 mm 1 mps 769 mmHg 90%
    04:00 +2°C° 0 mm 2 mps 769 mmHg 90%
    05:00 +2°C° 0 mm 2 mps 770 mmHg 89%
    06:00 +2°C° 0 mm 2 mps 770 mmHg 89%
    07:00 +2°C° 0 mm 2 mps 770 mmHg 87%
    08:00 +2°C° 0 mm 2 mps 771 mmHg 86%
    09:00 +3°C° 0 mm 2 mps 771 mmHg 84%
    10:00 +3°C° 0 mm 3 mps 771 mmHg 81%
    11:00 +4°C° 0 mm 3 mps 771 mmHg 78%
    12:00 +5°C° 0 mm 3 mps 771 mmHg 75%
    13:00 +5°C° 0 mm 3 mps 771 mmHg 78%
    14:00 +5°C° 0 mm 3 mps 770 mmHg 81%
    15:00 +4°C° 0 mm 3 mps 770 mmHg 84%
    16:00 +4°C° 0.1 mm 3 mps 770 mmHg 86%
    17:00 +5°C° 0.1 mm 3 mps 771 mmHg 88%
    18:00 +5°C° 0.1 mm 3 mps 771 mmHg 90%
    19:00 +5°C° 0.2 mm 3 mps 771 mmHg 92%
    20:00 +5°C° 0.2 mm 3 mps 771 mmHg 93%
    21:00 +5°C° 0.2 mm 3 mps 771 mmHg 95%
    22:00 +7°C° 0.2 mm 3 mps 771 mmHg 96%
    23:00 +7°C° 0.2 mm 3 mps 771 mmHg 97%

    20 December, Wednesday

    Time Temperature Precipitation Wind Pressure Humidity
    00:00 +7°C° 0.2 mm 2 mps 771 mmHg 97%
    01:00 +8°C° 0.1 mm 2 mps 771 mmHg 98%
    02:00 +8°C° 0.1 mm 2 mps 771 mmHg 98%
    03:00 +8°C° 0.1 mm 2 mps 770 mmHg 98%
    04:00 +8°C° 0.1 mm 2 mps 771 mmHg 98%
    05:00 +8°C° 0.1 mm 2 mps 771 mmHg 98%
    06:00 +9°C° 0.1 mm 2 mps 771 mmHg 98%
    07:00 +9°C° 0.1 mm 2 mps 771 mmHg 98%
    08:00 +9°C° 0.1 mm 2 mps 771 mmHg 98%
    09:00 +9°C° 0.1 mm 2 mps 771 mmHg 98%
    10:00 +9°C° 0 mm 2 mps 771 mmHg 97%
    11:00 +10°C° 0 mm 2 mps 771 mmHg 97%
    12:00 +10°C° 0 mm 2 mps 771 mmHg 96%
    13:00 +10°C° 0 mm 2 mps 771 mmHg 96%
    14:00 +10°C° 0 mm 2 mps 771 mmHg 97%
    15:00 +10°C° 0 mm 2 mps 771 mmHg 97%
    16:00 +9°C° 0.1 mm 2 mps 772 mmHg 97%
    17:00 +9°C° 0.1 mm 2 mps 772 mmHg 97%
    18:00 +9°C° 0.1 mm 2 mps 772 mmHg 97%
    19:00 +9°C° 0 mm 2 mps 772 mmHg 97%
    20:00 +9°C° 0 mm 2 mps 772 mmHg 97%
    21:00 +9°C° 0 mm 2 mps 773 mmHg 97%
    22:00 +8°C° 0 mm 2 mps 772 mmHg 97%
    23:00 +8°C° 0 mm 2 mps 772 mmHg 97%
    Show more